Last 30 Days

AM-Summit 8643' (Ward Mt.)

Daily Data | America/Los_Angeles
as of 9/1/26 5:20 AM PDT
Date Daily Max Temp (°F) Time of Max Temp Daily Min Temp (°F) Time of Min Temp Wind Spd (mph) Daily Max Wind (mph) Time of Max Wind Max Wind Dir (°) Dew Pt (°F) Daily Max RH (%) Daily Min RH (%) Max Wet Bulb Temp (°F) Min Wet Bulb Temp (°F) WetB Hrs <28F (hrs) Min Wind Chill (°F) Wind Chill Time MinBV Day (V)
8/31/26 62.6 1534 45.1 2359 0.2 0.3 2255 N | 0 32.8 73 27 50.5 40.2 0.0 45.1 0001 13.1
8/30/26 66.4 1610 45.7 0409 0.2 0.3 0052 N | 0 30.1 54 25 51.8 36.6 0.0 45.7 0412 13.1
8/29/26 61.6 1651 45.8 0626 0.2 0.3 1742 N | 0 38.8 98 31 49.3 38.3 0.0 45.8 0628 13.1
8/28/26 54.4 1357 47.3 2201 0.2 0.3 1432 N | 0 43.6 97 55 52.9 44.5 0.0 47.3 2203 13.1
8/27/26 67.8 1416 52.7 2358 0.2 0.3 1025 N | 0 30.9 55 23 52.7 41.6 0.0 - - 13.1
8/26/26 71.6 1618 54.7 0444 0.2 0.3 1700 N | 0 39.4 67 27 54.1 44.3 0.0 - - 13.1
8/25/26 70.5 1644 53.9 0345 0.2 0.3 0100 N | 0 38.4 53 33 53.8 45.6 0.0 - - 13.1
8/24/26 71.0 1635 55.4 0702 0.2 0.2 2030 N | 0 39.9 56 34 54.8 46.4 0.0 - - 13.1
8/23/26 71.4 1659 54.6 0153 0.2 0.3 1546 N | 0 39.3 58 33 54.6 46.4 0.0 - - 13.0
8/22/26 69.3 1633 54.2 0650 0.2 0.3 1022 N | 0 37.2 52 33 52.9 45.4 0.0 - - 13.1
8/21/26 72.0 1654 57.1 0441 0.2 0.3 1722 N | 0 37.3 50 31 54.1 46.3 0.0 - - 13.1
8/20/26 71.0 1516 56.7 0532 0.2 0.3 1517 N | 0 32.9 43 24 52.1 44.7 0.0 - - 13.1
8/19/26 72.6 1519 58.2 0844 0.2 0.3 2112 N | 0 36.0 47 28 54.4 46.1 0.0 - - 13.1
8/18/26 73.4 1705 54.8 0616 0.2 0.3 1600 N | 0 35.4 52 24 53.4 42.9 0.0 - - 13.1
8/17/26 64.8 1400 53.2 0555 0.2 0.3 2205 N | 0 37.1 55 37 51.8 45.3 0.0 - - 13.1
8/16/26 67.6 1544 51.5 0021 0.2 0.3 0055 N | 0 31.6 49 29 51.9 39.9 0.0 - - 13.1
8/15/26 65.2 1642 46.3 0414 0.2 0.3 2307 N | 0 35.6 73 34 53.2 39.9 0.0 46.3 0415 13.1
8/14/26 61.7 1839 46.6 0549 0.2 0.3 1225 N | 0 41.4 82 38 52.5 41.5 0.0 46.6 0612 13.1
8/13/26 61.5 1319 49.6 2342 0.2 0.3 1539 N | 0 44.4 79 59 53.9 46.4 0.0 49.6 2355 13.1
8/12/26 69.5 1713 55.0 2359 0.2 0.3 1344 N | 0 35.6 64 19 55.0 42.3 0.0 - - 12.6
8/11/26 73.5 1635 59.3 2215 12.6 39.2 0001 N | 0 30.7 39 17 53.2 42.8 0.0 - - 12.7
8/10/26 76.2 1502 61.6 0701 27.6 56.5 1636 N | 0 34.5 42 20 54.8 44.8 0.0 - - 12.6
8/9/26 79.1 1758 64.4 2205 17.5 51.0 1632 N | 0 32.4 38 12 56.0 45.4 0.0 - - 13.0
8/8/26 83.4 1713 66.9 2101 11.5 41.2 1516 N | 0 37.7 45 22 58.9 49.7 0.0 - - 13.0
8/7/26 83.4 1743 64.2 0300 12.5 37.1 1532 N | 0 35.8 41 20 58.6 46.8 0.0 - - 13.0
8/6/26 78.3 1554 62.0 0354 23.0 50.9 1511 N | 0 31.7 35 13 55.1 43.1 0.0 - - 13.0
8/5/26 78.2 1731 61.1 0443 19.2 40.0 1428 N | 0 28.3 42 10 54.8 42.3 0.0 - - 13.1
8/4/26 77.8 1620 59.8 0630 14.6 34.0 1545 N | 0 29.0 39 11 54.6 43.3 0.0 - - 13.0
8/3/26 78.8 1559 56.7 0616 14.2 37.6 1534 N | 0 28.4 39 12 54.4 40.2 0.0 - - 13.1
8/2/26 75.0 1539 59.4 2217 21.7 48.9 1405 N | 0 27.2 42 13 52.3 42.5 0.0 - - 13.0
Max 83.4 - 66.9 - 27.6 56.5 - - 44.4 98 59 58.9 49.7 0.0 49.6 - 13.1
Avg - - - - 6.0 - - - 35.1 - - - - - - - -
Min 54.4 - 45.1 - 0.2 0.2 - - 27.2 35 10 49.3 36.6 0.0 45.1 - 12.6